This demonstration page uses our WeatherBlox Daily Observations layout. Learn more.

Left ArrowRight Arrow

36.17497, -115.13722

Hourly Observations for January 27, 2019

Temp ( °F °C ) Dew Point ( °F °C ) Humidity (%) Winds ( mph kmh ) Pressure ( in mb ) Visibility ( mi km ) Precip ( " mm )
12:53 am 00:53 Clear 48 8.9 26 -3.3 42 42 WNW 6 9 30.37 1028 10 16.0934 N/A
1:53 am 01:53 Clear 49 9.4 26 -3.3 41 41 W 3 6 30.36 1028 10 16.0934 N/A
2:53 am 02:53 Clear 47 8.3 26 -3.3 44 44 NW 8 13 30.35 1028 10 16.0934 N/A
3:53 am 03:53 Clear 47 8.3 27 -2.8 46 46 Calm 30.33 1027 10 16.0934 N/A
4:53 am 04:53 Clear 46 7.8 28 -2.2 50 50 Calm 30.32 1027 10 16.0934 N/A
5:53 am 05:53 Clear 44 6.7 28 -2.2 53 53 S 3 6 30.32 1027 10 16.0934 N/A
6:53 am 06:53 Sunny 45 7.2 28 -2.2 52 52 N 3 6 30.32 1027 10 16.0934 N/A
7:53 am 07:53 Sunny 46 7.8 29 -1.7 51 51 W 3 6 30.32 1027 10 16.0934 N/A
8:53 am 08:53 Sunny 51 10.6 30 -1.1 44 44 Calm 30.32 1027 10 16.0934 N/A
9:53 am 09:53 Sunny 54 12.2 28 -2.2 37 37 Calm 30.32 1027 10 16.0934 N/A
10:53 am 10:53 Sunny 57 13.9 28 -2.2 33 33 Calm 30.28 1026 10 16.0934 N/A
11:53 am 11:53 Sunny 60 15.6 28 -2.2 30 30 SE 5 7 30.22 1024 10 16.0934 N/A
12:53 pm 12:53 Sunny 61 16.1 28 -2.2 29 29 SSE 6 9 30.18 1022 10 16.0934 N/A
1:53 pm 13:53 Sunny 63 17.2 28 -2.2 27 27 E 3 6 30.17 1022 10 16.0934 N/A
2:53 pm 14:53 Sunny 63 17.2 28 -2.2 27 27 SSW 3 6 30.13 1020 10 16.0934 N/A
3:53 pm 15:53 Sunny 64 17.8 28 -2.2 26 26 Calm 30.11 1020 10 16.0934 N/A
4:53 pm 16:53 Sunny 62 16.7 29 -1.7 29 29 ESE 6 9 30.1 1019 10 16.0934 0 0
5:53 pm 17:53 Clear 58 14.4 29 -1.7 33 33 ESE 5 7 30.12 1020 10 16.0934 N/A
6:53 pm 18:53 Clear 56 13.3 30 -1.1 37 37 WNW 6 9 30.12 1020 10 16.0934 N/A
7:53 pm 19:53 Clear 54 12.2 32 0 43 43 WNW 6 9 30.13 1020 10 16.0934 N/A
8:53 pm 20:53 Clear 51 10.6 32 0 48 48 NW 5 7 30.13 1020 10 16.0934 N/A
9:53 pm 21:53 Clear 50 10 32 0 50 50 NW 3 6 30.12 1020 10 16.0934 N/A
10:53 pm 22:53 Clear 49 9.4 32 0 52 52 W 5 7 30.12 1020 10 16.0934 N/A
11:53 pm 23:53 Clear 49 9.4 31 -0.6 50 50 Calm 30.11 1020 10 16.0934 N/A

Powered by AerisWeather